Flag for Germany Weather past 2 weeks in Heide, Schleswig-Holstein, Germany

41 °F

Partly cloudy.

Feels Like: 34 °F
Forecast: 42 / 50 °F
Wind: 13 mph from Southwest

Location: Hohn

Current Time: Nov 28, 2015 at 7:36:19 PM

Latest Report: Nov 28, 2015 at 6:20 PM

Visibility: N/A

Pressure: 29.71 "Hg

Humidity: 87%

Dew point: 37 °F

Location of HeideLocation

Historic Weather in Heide — Graph


Heide temperature yesterday

Maximum temperature yesterday: 43 °F (at 7:20 PM)
Minimum temperature yesterday: 37 °F (at 12:20 AM)
Average temperature yesterday: 40 °F

Past Weeks' High & Low Weather Summary

High55 °F (Nov 16, 1:20 PM)100% (Nov 15, 11:20 AM)30.12 "Hg (Nov 15, 11:20 AM)
Low27 °F (Nov 23, 8:20 AM)65% (Nov 22, 11:20 PM)29.24 "Hg (Nov 18, 4:20 AM)
Average43 °F88%29.68 "Hg
* Reported Nov 13 6:20 PM — Nov 28 6:20 PM, Heide, Weather by CustomWeather, © 2015

Note: Actual official high and low records may vary slightly from our data, if they occured in-between our weather recording intervals... More about our weather records


Heide weather history for previous 24 hours

Time TempWeatherWind HumidityBarometerVisibility
6:20 PM
Sat, Nov 28
41 °FPartly cloudy.13 mph87%29.71 "HgN/A
5:20 PM43 °FPassing clouds.9 mph76%29.71 "HgN/A
4:20 PM41 °FPassing clouds.8 mph81%29.71 "HgN/A
3:20 PM43 °FPassing clouds.10 mph76%29.71 "HgN/A
2:20 PM45 °FPassing clouds.14 mph66%29.68 "HgN/A
1:20 PM46 °FPassing clouds.17 mph71%29.65 "HgN/A
11:20 AM43 °FScattered clouds.9 mph93%29.65 "HgN/A
10:20 AM41 °FBroken clouds.9 mph100%29.62 "HgN/A
9:20 AM43 °FLight rain. Partly sunny.16 mph87%29.59 "HgN/A
8:20 AM41 °FLight rain. Broken clouds.13 mph93%29.53 "Hg5 mi
7:55 AM41 °FLight rain. Fog.12 mph93%29.53 "Hg3 mi
7:20 AM39 °FLight rain. Fog.9 mph93%29.50 "Hg3 mi
6:20 AM37 °FDrizzle. Fog.13 mph93%29.50 "Hg3 mi
5:20 AM39 °FPassing clouds.18 mph87%29.50 "Hg2 mi
4:20 AM39 °FPassing clouds.16 mph81%29.50 "HgN/A
3:20 AM39 °FPartly cloudy.18 mph87%29.53 "HgN/A
2:20 AM41 °FPassing clouds.16 mph81%29.56 "HgN/A
1:20 AM41 °FPartly cloudy.15 mph87%29.59 "Hg5 mi
12:20 AM39 °FPassing clouds.16 mph93%29.62 "Hg4 mi
11:20 PM
Fri, Nov 27
39 °FLight rain. Fog.14 mph93%29.65 "Hg3 mi
10:20 PM41 °FPassing clouds.16 mph81%29.68 "HgN/A
9:20 PM41 °FPassing clouds.16 mph81%29.71 "HgN/A
8:20 PM43 °FPassing clouds.14 mph76%29.74 "HgN/A
7:20 PM43 °FPassing clouds.13 mph81%29.77 "Hg5 mi
Weather by CustomWeather, © 2015

See weather overviewHow to use our weather pages